パンスターズ彗星

P/2019 A8 ( PanSTARRS )

English version
Home page
Updated on June 8, 2019

---------------------------------------------------------------------

・ プロフィール

発見日 2019年1月11日
発見光度 21.5等
発見者 Pan-STARRS 1 telescope (Haleakala)

・ 軌道要素

Epoch 2018 Aug. 30.0 TT = JDT 2458360.5
T 2018 Aug. 30.48908 TT                                 MPCW
q   1.8715038            (2000.0)            P               Q
n   0.16716108     Peri.   20.27953     -0.84910246     -0.52664607
a   3.2637178      Node   127.87444     +0.47722504     -0.79797507
e   0.4265730      Incl.    2.96661     +0.22645369     -0.29305239
P   5.90
From 32 observations 2018 Dec. 16-2019 Feb. 9, mean residual 0".6.

・ 光度変化

        m1 = 15.5 + 5 logΔ + 10.0 log r

---------------------------------------------------------------------

軌道要素はM.P.E.C. 2019-L24に掲載されたものです。
光度グラフはComet for Windowsで作成したものです。

---------------------------------------------------------------------

Copyright(C) Seiichi Yoshida (comet@aerith.net). All rights reserved.